FW2905 Weather Reports


time (UTC)temp
F
wind
direction
speed
knots
gust
knots
rain 1hr
in
rain 24hr
in
rain mn
in
humidity
%
barometer
mb
20260503200518 65 189 10.4 20.0 0.00 0.00 0.00 44 1005.9
20260503200038 64 276 11.3 22.6 0.00 0.00 0.00 43 1006.3
20260503195519 64 240 11.3 22.6 0.00 0.00 0.00 43 1006.4
20260503195018 65 275 9.6 24.3 0.00 0.00 0.00 43 1006.2
20260503194541 64 242 10.4 25.2 0.00 0.00 0.00 42 1006.2
20260503194018 65 275 11.3 25.2 0.00 0.00 0.00 40 1006.3
20260503193518 65 317 10.4 23.5 0.00 0.00 0.00 42 1006.1
20260503193040 65 289 9.6 23.5 0.00 0.00 0.00 41 1006.4
20260503192517 65 220 11.3 23.5 0.00 0.00 0.00 41 1006.3
20260503192018 65 224 8.7 19.1 0.00 0.00 0.00 42 1006.4
20260503191536 64 232 10.4 22.6 0.00 0.00 0.00 43 1006.5
20260503191018 64 201 8.7 25.2 0.00 0.00 0.00 44 1006.5
20260503190517 63 240 12.2 25.2 0.00 0.00 0.00 44 1006.5
20260503190041 63 248 13.9 26.1 0.00 0.00 0.00 43 1006.4
20260503185515 63 281 12.2 26.9 0.00 0.00 0.00 43 1006.7
20260503185016 63 207 13.0 26.9 0.00 0.00 0.00 44 1006.8
20260503184534 63 290 12.2 22.6 0.00 0.00 0.00 46 1006.8
20260503184018 63 215 12.2 22.6 0.00 0.00 0.00 44 1006.8
20260503183517 63 205 10.4 22.6 0.00 0.00 0.00 44 1006.9
20260503183030 63 254 9.6 28.7 0.00 0.00 0.00 45 1006.9
20260503182523 62 221 9.6 28.7 0.00 0.00 0.00 45 1007.1
20260503182021 62 236 13.9 24.3 0.00 0.00 0.00 44 1007.2
20260503181538 63 250 10.4 22.6 0.00 0.00 0.00 45 1007.2
20260503181018 62 267 8.7 23.5 0.00 0.00 0.00 48 1007.3
20260503180518 61 253 13.0 23.5 0.00 0.00 0.00 47 1007.3
20260503180034 61 223 11.3 20.9 0.00 0.00 0.00 47 1007.4
20260503175516 61 272 9.6 21.7 0.00 0.00 0.00 48 1007.5
20260503175018 61 198 11.3 21.7 0.00 0.00 0.00 47 1007.6
20260503174552 61 213 8.7 18.2 0.00 0.00 0.00 49 1007.4
20260503174018 61 153 11.3 18.2 0.00 0.00 0.00 49 1007.7
20260503173519 60 219 9.6 19.1 0.00 0.00 0.00 49 1007.7
20260503173034 60 207 11.3 21.7 0.00 0.00 0.00 51 1008.0
20260503172517 59 210 10.4 21.7 0.00 0.00 0.00 50 1008.0
20260503172018 59 234 9.6 20.0 0.00 0.00 0.00 51 1008.1
20260503171530 59 197 7.0 17.4 0.00 0.00 0.00 55 1008.2
20260503171016 58 198 9.6 17.4 0.00 0.00 0.00 55 1008.3
20260503170515 57 195 7.8 21.7 0.00 0.00 0.00 57 1008.4
20260503150515 56 229 10.4 18.2 0.00 0.00 0.00 52 1009.4
20260503131018 52 213 6.1 13.9 0.00 0.00 0.00 53 1010.7
20260503130516 51 259 7.8 16.5 0.00 0.00 0.00 53 1010.8
20260503110521 49 139 4.3 13.0 0.00 0.00 0.00 51 1010.8
20260503081544 48 182 4.3 10.4 0.00 0.00 0.00 51 1011.6
20260503081014 48 236 5.2 10.4 0.00 0.00 0.00 51 1011.6
20260503080515 48 239 5.2 9.6 0.00 0.00 0.00 50 1011.6
20260503072515 48 172 3.5 7.0 0.00 0.00 0.00 52 1012.0
20260503072012 48 196 4.3 7.0 0.00 0.00 0.00 52 1012.0
20260503071538 48 221 2.6 6.1 0.00 0.00 0.00 52 1012.0
20260503071015 48 207 2.6 7.0 0.00 0.00 0.00 52 1012.0
20260503070515 48 192 3.5 7.8 0.00 0.00 0.00 52 1012.0
20260503055014 46 222 2.6 7.0 0.00 0.00 0.00 55 1012.7
20260503054535 45 205 2.6 7.8 0.00 0.00 0.00 56 1012.8
20260503054018 45 183 2.6 7.8 0.00 0.00 0.00 58 1012.8
20260503053515 44 207 1.7 3.5 0.00 0.00 0.00 60 1012.8
20260503053033 44 238 0.9 2.6 0.00 0.00 0.00 61 1012.9
20260503052515 44 229 1.7 3.5 0.00 0.00 0.00 62 1012.9
20260503052022 44 205 1.7 3.5 0.00 0.00 0.00 62 1013.0
20260503051530 44 215 1.7 3.5 0.00 0.00 0.00 62 1013.0
20260503051015 44 209 1.7 5.2 0.00 0.00 0.00 63 1013.0
20260503050516 43 202 1.7 6.1 0.00 0.00 0.00 63 1013.1
20260503050031 43 204 2.6 6.1 0.00 0.00 0.00 63 1013.2
20260503045519 43 214 1.7 4.3 0.00 0.00 0.00 64 1013.0
20260503045015 43 216 1.7 4.3 0.00 0.00 0.00 65 1013.2
20260503044541 43 194 2.6 4.3 0.00 0.00 0.00 66 1013.3
20260503044018 42 198 1.7 4.3 0.00 0.00 0.00 66 1013.3
20260503043520 42 194 1.7 2.6 0.00 0.00 0.00 67 1013.3
20260503043035 42 200 0.9 2.6 0.00 0.00 0.00 66 1013.3
20260503042518 43 210 0.9 2.6 0.00 0.00 0.00 66 1013.4
20260503042015 43 221 0.9 2.6 0.00 0.00 0.00 66 1013.4
20260503041536 43 216 0.9 2.6 0.00 0.00 0.00 66 1013.5
20260503041018 43 219 1.7 2.6 0.00 0.00 0.00 65 1013.4
20260503040517 43 213 0.9 3.5 0.00 0.00 0.00 66 1013.4
20260503040035 43 223 0.9 3.5 0.00 0.00 0.00 66 1013.5
20260503035515 43 209 1.7 3.5 0.00 0.00 0.00 66 1013.5
20260503035016 42 202 1.7 3.5 0.00 0.00 0.00 67 1013.6
20260503034550 43 181 0.9 4.3 0.00 0.00 0.00 67 1013.7
20260503034015 43 181 1.7 4.3 0.00 0.00 0.00 66 1013.7
20260503033516 43 188 1.7 5.2 0.00 0.00 0.00 66 1013.7
20260503033035 43 214 2.6 6.1 0.00 0.00 0.00 67 1013.8
20260503032515 43 193 2.6 6.1 0.00 0.00 0.00 67 1013.9
20260503032015 43 221 2.6 5.2 0.00 0.00 0.00 67 1013.8
20260503031533 42 202 1.7 4.3 0.00 0.00 0.00 67 1013.9
20260503031015 42 200 0.9 4.3 0.00 0.00 0.00 68 1013.9
20260503030517 42 181 0.9 4.3 0.00 0.00 0.00 69 1014.1
20260503030031 42 186 1.7 4.3 0.00 0.00 0.00 69 1014.1
20260503025518 42 178 1.7 4.3 0.00 0.00 0.00 70 1014.2
20260503025015 42 188 1.7 4.3 0.00 0.00 0.00 71 1014.2
20260503024535 41 183 1.7 4.3 0.00 0.00 0.00 72 1014.2
20260503024018 41 169 1.7 4.3 0.00 0.00 0.00 73 1014.2
20260503023519 41 158 2.6 5.2 0.00 0.00 0.00 74 1014.2
20260503023035 41 163 2.6 5.2 0.00 0.00 0.00 74 1014.2
20260503022516 41 167 3.5 5.2 0.00 0.00 0.00 73 1014.3
20260503022015 41 173 2.6 5.2 0.00 0.00 0.00 73 1014.3
20260503021535 42 166 2.6 6.1 0.00 0.00 0.00 73 1014.4
20260503021015 42 148 3.5 6.1 0.00 0.00 0.00 73 1014.4
20260503020518 42 152 2.6 5.2 0.00 0.00 0.00 73 1014.4
20260503020031 42 153 2.6 5.2 0.00 0.00 0.00 72 1014.3
20260503015515 42 161 2.6 5.2 0.00 0.00 0.00 72 1014.3
20260503015015 42 150 2.6 6.1 0.00 0.00 0.00 72 1014.2
20260503014535 42 144 3.5 6.1 0.00 0.00 0.00 71 1014.2
20260503014015 42 154 2.6 6.1 0.00 0.00 0.00 71 1014.1
20260503013516 42 160 1.7 6.1 0.00 0.00 0.00 71 1014.1
20260503013030 43 148 2.6 6.1 0.00 0.00 0.00 70 1014.0
20260503012516 43 157 2.6 6.1 0.00 0.00 0.00 70 1014.1
20260503012019 43 153 2.6 6.1 0.00 0.00 0.00 69 1014.0
20260503011532 43 157 2.6 4.3 0.00 0.00 0.00 69 1014.1
20260503011015 43 144 2.6 5.2 0.00 0.00 0.00 68 1014.1
20260503010515 44 146 1.7 6.1 0.00 0.00 0.00 68 1014.1
20260503010030 44 158 2.6 7.8 0.00 0.00 0.00 67 1014.1
20260503005515 44 140 2.6 7.8 0.00 0.00 0.00 66 1014.2
20260503005019 44 163 3.5 7.0 0.00 0.00 0.00 66 1014.2
20260503004532 45 178 3.5 7.0 0.00 0.00 0.00 65 1014.3
20260503004015 45 161 3.5 7.8 0.00 0.00 0.00 65 1014.3
20260503003515 45 161 5.2 8.7 0.00 0.00 0.00 64 1014.2
20260503003046 45 155 4.3 9.6 0.00 0.00 0.00 64 1014.3
20260503002516 46 160 4.3 9.6 0.00 0.00 0.00 63 1014.3
20260503002019 46 144 2.6 7.0 0.00 0.00 0.00 62 1014.3
20260503001549 46 128 2.6 8.7 0.00 0.00 0.00 62 1014.3
20260503001014 47 121 3.5 8.7 0.00 0.00 0.00 61 1014.3
20260503000515 47 161 3.5 8.7 0.00 0.00 0.00 60 1014.4
20260503000032 47 156 3.5 8.7 0.00 0.00 0.00 60 1014.4
20260502235515 47 157 5.2 8.7 0.00 0.00 0.00 60 1014.4
20260502235015 47 153 4.3 9.6 0.00 0.00 0.00 59 1014.6
20260502234535 47 152 5.2 9.6 0.00 0.00 0.00 58 1014.5
20260502234016 47 148 5.2 9.6 0.00 0.00 0.00 58 1014.6
20260502233512 47 132 4.3 8.7 0.00 0.00 0.00 56 1014.7
20260502233033 48 161 5.2 8.7 0.00 0.00 0.00 55 1014.7
20260502232515 48 161 3.5 8.7 0.00 0.00 0.00 54 1014.7
20260502232012 49 146 4.3 8.7 0.00 0.00 0.00 53 1014.8
20260502231531 48 145 3.5 8.7 0.00 0.00 0.00 54 1014.8
20260502231015 48 140 4.3 8.7 0.00 0.00 0.00 53 1014.9
20260502230519 48 151 3.5 8.7 0.00 0.00 0.00 52 1014.9
20260502230036 49 161 5.2 13.9 0.00 0.00 0.00 51 1015.0
20260502225514 49 172 7.0 15.6 0.00 0.00 0.00 49 1015.0
20260502225018 49 186 8.7 15.6 0.00 0.00 0.00 49 1015.0
20260502224530 49 152 7.8 13.0 0.00 0.00 0.00 51 1015.1
20260502224018 48 165 4.3 13.0 0.00 0.00 0.00 52 1015.1
20260502223520 49 153 7.0 12.2 0.00 0.00 0.00 51 1015.1
20260502223036 50 170 6.1 13.0 0.00 0.00 0.00 48 1015.1
20260502222518 50 140 7.0 13.9 0.00 0.00 0.00 48 1015.2
20260502222017 50 163 8.7 13.9 0.00 0.00 0.00 47 1015.2
20260502221540 50 163 7.8 13.9 0.00 0.00 0.00 48 1015.3
20260502221015 49 162 4.3 13.9 0.00 0.00 0.00 50 1015.3
20260502220517 49 171 5.2 13.9 0.00 0.00 0.00 49 1015.3
20260502220037 49 154 8.7 13.9 0.00 0.00 0.00 47 1015.4
20260502215515 50 165 7.0 12.2 0.00 0.00 0.00 46 1015.5
20260502215014 50 172 6.1 13.0 0.00 0.00 0.00 45 1015.6
20260502214540 51 150 6.1 13.0 0.00 0.00 0.00 46 1015.5
20260502214015 50 143 6.1 13.0 0.00 0.00 0.00 47 1015.6
20260502213515 50 166 6.1 15.6 0.00 0.00 0.00 47 1015.7
20260502213033 50 179 7.8 15.6 0.00 0.00 0.00 46 1015.6
20260502212518 50 175 6.1 12.2 0.00 0.00 0.00 47 1015.7
20260502212018 50 124 5.2 11.3 0.00 0.00 0.00 47 1015.7
20260502211535 50 143 4.3 11.3 0.00 0.00 0.00 47 1015.8
20260502211017 48 103 5.2 13.9 0.00 0.00 0.00 47 1015.8
20260502210518 48 134 7.8 13.9 0.00 0.00 0.00 47 1015.8
20260502210038 48 156 7.8 16.5 0.00 0.00 0.00 46 1015.9
20260502205517 48 131 9.6 16.5 0.00 0.00 0.00 46 1016.0
20260502205017 49 165 6.1 13.9 0.00 0.00 0.00 48 1016.0
20260502204536 48 159 7.8 13.9 0.00 0.00 0.00 47 1016.2
20260502204018 48 162 7.0 13.9 0.00 0.00 0.00 47 1016.2
20260502203515 49 152 7.0 13.9 0.00 0.00 0.00 46 1016.2
20260502203036 50 162 5.2 13.0 0.00 0.00 0.00 48 1016.3
20260502202516 49 139 6.1 13.0 0.00 0.00 0.00 48 1016.4
20260502202015 49 150 7.0 12.2 0.00 0.00 0.00 47 1016.5
20260502201533 49 182 7.0 17.4 0.00 0.00 0.00 46 1016.5
20260502201018 48 116 10.4 17.4 0.00 0.00 0.00 44 1016.6